| time (UTC) | temp F | wind direction | speed MPH | gust MPH | rain 1hr in | rain 24hr in | rain mn in | humidity % | barometer mb |
| 20260507060435 | 54 | 257 | 8.0 | 24.0 | 0.00 | 0.00 | 0.00 | 86 | 1019.2 |
| 20260507055921 | 54 | 268 | 14.0 | 24.0 | 0.00 | 0.00 | 0.00 | 86 | 1019.0 |
| 20260507055426 | 54 | 264 | 15.0 | 24.0 | 0.00 | 0.00 | 0.00 | 86 | 1019.0 |
| 20260507054933 | 54 | 295 | 9.0 | 19.0 | 0.00 | 0.00 | 0.00 | 86 | 1019.0 |
| 20260507054421 | 55 | 270 | 11.0 | 20.0 | 0.00 | 0.00 | 0.00 | 86 | 1019.0 |
| 20260507053929 | 55 | 268 | 12.0 | 21.0 | 0.00 | 0.00 | 0.00 | 86 | 1019.0 |
| 20260507053438 | 55 | 275 | 12.0 | 21.0 | 0.00 | 0.00 | 0.00 | 86 | 1019.1 |
| 20260507052925 | 55 | 273 | 12.0 | 20.0 | 0.00 | 0.00 | 0.00 | 86 | 1019.2 |
| 20260507052429 | 55 | 273 | 10.0 | 21.0 | 0.00 | 0.00 | 0.00 | 86 | 1019.1 |
| 20260507051936 | 55 | 256 | 10.0 | 19.0 | 0.00 | 0.00 | 0.00 | 86 | 1019.2 |
| 20260507051423 | 55 | 285 | 11.0 | 22.0 | 0.00 | 0.00 | 0.00 | 86 | 1019.2 |
| 20260507050959 | 55 | 268 | 10.0 | 22.0 | 0.00 | 0.00 | 0.00 | 86 | 1019.2 |
| 20260507050425 | 55 | 287 | 11.0 | 27.0 | 0.00 | 0.00 | 0.00 | 86 | 1019.1 |
| 20260507045930 | 55 | 265 | 15.0 | 27.0 | 0.00 | 0.00 | 0.00 | 86 | 1019.2 |
| 20260507045438 | 55 | 307 | 15.0 | 24.0 | 0.00 | 0.00 | 0.00 | 86 | 1019.2 |
| 20260507044923 | 55 | 280 | 14.0 | 27.0 | 0.00 | 0.00 | 0.00 | 86 | 1019.1 |
| 20260507044451 | 55 | 278 | 18.0 | 27.0 | 0.00 | 0.00 | 0.00 | 86 | 1019.2 |
| 20260507043936 | 55 | 282 | 18.0 | 28.0 | 0.00 | 0.00 | 0.00 | 86 | 1019.0 |
| 20260507043422 | 55 | 275 | 19.0 | 28.0 | 0.00 | 0.00 | 0.00 | 86 | 1019.0 |
| 20260507042930 | 55 | 256 | 16.0 | 27.0 | 0.00 | 0.00 | 0.00 | 85 | 1019.0 |
| 20260507042438 | 55 | 282 | 14.0 | 26.0 | 0.00 | 0.00 | 0.00 | 85 | 1018.8 |
| 20260507041925 | 55 | 256 | 14.0 | 31.0 | 0.00 | 0.00 | 0.00 | 85 | 1018.8 |
| 20260507041425 | 55 | 252 | 17.0 | 31.0 | 0.00 | 0.00 | 0.00 | 85 | 1018.8 |
| 20260507040933 | 55 | 283 | 20.0 | 27.0 | 0.00 | 0.00 | 0.00 | 85 | 1018.7 |
| 20260507040436 | 55 | 273 | 14.0 | 29.0 | 0.00 | 0.00 | 0.00 | 85 | 1018.7 |
| 20260507035950 | 55 | 233 | 15.0 | 27.0 | 0.00 | 0.00 | 0.00 | 85 | 1018.8 |
| 20260507035436 | 55 | 297 | 16.0 | 28.0 | 0.00 | 0.00 | 0.00 | 85 | 1018.8 |
| 20260507034943 | 55 | 283 | 17.0 | 28.0 | 0.00 | 0.00 | 0.00 | 85 | 1018.8 |
| 20260507034445 | 55 | 270 | 15.0 | 27.0 | 0.00 | 0.00 | 0.00 | 85 | 1018.8 |
| 20260507033929 | 55 | 275 | 16.0 | 27.0 | 0.00 | 0.00 | 0.00 | 85 | 1018.7 |
| 20260507033433 | 55 | 275 | 17.0 | 28.0 | 0.00 | 0.00 | 0.00 | 85 | 1018.6 |
| 20260507032938 | 55 | 301 | 18.0 | 28.0 | 0.00 | 0.00 | 0.00 | 85 | 1018.4 |
| 20260507032425 | 56 | 266 | 14.0 | 28.0 | 0.00 | 0.00 | 0.00 | 85 | 1018.4 |
| 20260507031933 | 56 | 273 | 17.0 | 31.0 | 0.00 | 0.00 | 0.00 | 84 | 1018.3 |
| 20260507031419 | 56 | 282 | 18.0 | 31.0 | 0.00 | 0.00 | 0.00 | 84 | 1018.3 |
| 20260507030926 | 56 | 272 | 19.0 | 28.0 | 0.00 | 0.00 | 0.00 | 84 | 1018.2 |
| 20260507030427 | 56 | 268 | 18.0 | 29.0 | 0.00 | 0.00 | 0.00 | 84 | 1018.3 |
| 20260507025933 | 56 | 283 | 21.0 | 29.0 | 0.00 | 0.00 | 0.00 | 84 | 1018.3 |
| 20260507025420 | 56 | 282 | 18.0 | 29.0 | 0.00 | 0.00 | 0.00 | 83 | 1018.3 |
| 20260507024928 | 56 | 290 | 17.0 | 30.0 | 0.00 | 0.00 | 0.00 | 83 | 1018.3 |
| 20260507024435 | 56 | 263 | 19.0 | 30.0 | 0.00 | 0.00 | 0.00 | 83 | 1018.1 |
| 20260507023922 | 56 | 259 | 17.0 | 30.0 | 0.00 | 0.00 | 0.00 | 83 | 1018.1 |
| 20260507023429 | 56 | 251 | 15.0 | 30.0 | 0.00 | 0.00 | 0.00 | 83 | 1018.2 |
| 20260507022934 | 57 | 297 | 15.0 | 28.0 | 0.00 | 0.00 | 0.00 | 82 | 1018.0 |
| 20260507022440 | 57 | 289 | 15.0 | 34.0 | 0.00 | 0.00 | 0.00 | 82 | 1018.0 |
| 20260507021955 | 57 | 290 | 18.0 | 34.0 | 0.00 | 0.00 | 0.00 | 82 | 1018.2 |
| 20260507021420 | 57 | 271 | 17.0 | 28.0 | 0.00 | 0.00 | 0.00 | 82 | 1018.1 |
| 20260507020927 | 57 | 278 | 19.0 | 28.0 | 0.00 | 0.00 | 0.00 | 81 | 1018.1 |
| 20260507020435 | 57 | 294 | 15.0 | 30.0 | 0.00 | 0.00 | 0.00 | 81 | 1018.1 |
| 20260507015920 | 58 | 280 | 17.0 | 30.0 | 0.00 | 0.00 | 0.00 | 80 | 1018.1 |
| 20260507015426 | 58 | 280 | 13.0 | 27.0 | 0.00 | 0.00 | 0.00 | 80 | 1018.1 |
| 20260507014928 | 58 | 278 | 18.0 | 27.0 | 0.00 | 0.00 | 0.00 | 80 | 1018.1 |
| 20260507014436 | 58 | 280 | 13.0 | 28.0 | 0.00 | 0.00 | 0.00 | 80 | 1018.0 |
| 20260507013951 | 58 | 278 | 17.0 | 27.0 | 0.00 | 0.00 | 0.00 | 79 | 1018.1 |
| 20260507013437 | 59 | 232 | 15.0 | 29.0 | 0.00 | 0.00 | 0.00 | 79 | 1018.0 |
| 20260507012939 | 59 | 263 | 19.0 | 31.0 | 0.00 | 0.00 | 0.00 | 79 | 1018.0 |
| 20260507012425 | 59 | 256 | 17.0 | 31.0 | 0.00 | 0.00 | 0.00 | 79 | 1017.9 |
| 20260507011929 | 59 | 282 | 13.0 | 28.0 | 0.00 | 0.00 | 0.00 | 79 | 1018.2 |
| 20260507011436 | 59 | 213 | 14.0 | 31.0 | 0.00 | 0.00 | 0.00 | 79 | 1018.2 |
| 20260507010923 | 59 | 276 | 21.0 | 31.0 | 0.00 | 0.00 | 0.00 | 78 | 1018.3 |
| 20260507010432 | 60 | 265 | 17.0 | 26.0 | 0.00 | 0.00 | 0.00 | 78 | 1018.3 |
| 20260507005938 | 60 | 280 | 15.0 | 26.0 | 0.00 | 0.00 | 0.00 | 77 | 1018.3 |
| 20260507005426 | 60 | 251 | 13.0 | 23.0 | 0.00 | 0.00 | 0.00 | 78 | 1018.3 |
| 20260507004932 | 60 | 280 | 14.0 | 27.0 | 0.00 | 0.00 | 0.00 | 78 | 1018.3 |
| 20260507004420 | 60 | 257 | 17.0 | 27.0 | 0.00 | 0.00 | 0.00 | 78 | 1018.2 |
| 20260507003925 | 60 | 261 | 14.0 | 27.0 | 0.00 | 0.00 | 0.00 | 78 | 1018.3 |
| 20260507003459 | 60 | 285 | 15.0 | 26.0 | 0.00 | 0.00 | 0.00 | 77 | 1018.3 |
| 20260507002925 | 60 | 273 | 14.0 | 26.0 | 0.00 | 0.00 | 0.00 | 77 | 1018.3 |
| 20260507002432 | 60 | 279 | 16.0 | 26.0 | 0.00 | 0.00 | 0.00 | 77 | 1018.3 |
| 20260507001938 | 61 | 297 | 11.0 | 23.0 | 0.00 | 0.00 | 0.00 | 77 | 1018.3 |
| 20260507001456 | 61 | 282 | 11.0 | 22.0 | 0.00 | 0.00 | 0.00 | 77 | 1018.4 |
| 20260507000920 | 61 | 287 | 14.0 | 22.0 | 0.00 | 0.00 | 0.00 | 77 | 1018.4 |
| 20260507000423 | 60 | 280 | 12.0 | 24.0 | 0.00 | 0.00 | 0.00 | 77 | 1018.4 |
| 20260506235927 | 60 | 265 | 16.0 | 25.0 | 0.00 | 0.00 | 0.00 | 77 | 1018.5 |
| 20260506235435 | 60 | 301 | 14.0 | 29.0 | 0.00 | 0.00 | 0.00 | 78 | 1018.4 |
| 20260506234922 | 60 | 278 | 16.0 | 29.0 | 0.00 | 0.00 | 0.00 | 78 | 1018.5 |
| 20260506234458 | 61 | 295 | 17.0 | 26.0 | 0.00 | 0.00 | 0.00 | 77 | 1018.4 |
| 20260506233924 | 60 | 261 | 14.0 | 28.0 | 0.00 | 0.00 | 0.00 | 78 | 1018.5 |
| 20260506233430 | 60 | 264 | 19.0 | 29.0 | 0.00 | 0.00 | 0.00 | 78 | 1018.7 |
| 20260506232933 | 60 | 270 | 19.0 | 29.0 | 0.00 | 0.00 | 0.00 | 77 | 1018.6 |
| 20260506232442 | 61 | 270 | 16.0 | 28.0 | 0.00 | 0.00 | 0.00 | 77 | 1018.6 |
| 20260506231927 | 61 | 295 | 19.0 | 28.0 | 0.00 | 0.00 | 0.00 | 77 | 1018.6 |
| 20260506231435 | 61 | 263 | 19.0 | 28.0 | 0.00 | 0.00 | 0.00 | 76 | 1018.6 |
| 20260506230923 | 61 | 283 | 15.0 | 28.0 | 0.00 | 0.00 | 0.00 | 76 | 1018.6 |
| 20260506230429 | 61 | 280 | 15.0 | 28.0 | 0.00 | 0.00 | 0.00 | 76 | 1018.8 |
| 20260506225933 | 62 | 256 | 14.0 | 25.0 | 0.00 | 0.00 | 0.00 | 76 | 1018.8 |
| 20260506225436 | 61 | 285 | 16.0 | 27.0 | 0.00 | 0.00 | 0.00 | 77 | 1018.8 |
| 20260506224921 | 61 | 238 | 15.0 | 31.0 | 0.00 | 0.00 | 0.00 | 76 | 1019.0 |
| 20260506224449 | 62 | 269 | 15.0 | 31.0 | 0.00 | 0.00 | 0.00 | 76 | 1019.0 |
| 20260506223934 | 62 | 259 | 12.0 | 26.0 | 0.00 | 0.00 | 0.00 | 77 | 1019.1 |
| 20260506223419 | 61 | 289 | 17.0 | 28.0 | 0.00 | 0.00 | 0.00 | 76 | 1019.1 |
| 20260506222925 | 61 | 291 | 11.0 | 28.0 | 0.00 | 0.00 | 0.00 | 77 | 1019.2 |
| 20260506222431 | 61 | 329 | 16.0 | 27.0 | 0.00 | 0.00 | 0.00 | 76 | 1019.2 |
| 20260506221935 | 62 | 268 | 12.0 | 27.0 | 0.00 | 0.00 | 0.00 | 76 | 1019.3 |
| 20260506221450 | 62 | 55 | 12.0 | 24.0 | 0.00 | 0.00 | 0.00 | 76 | 1019.5 |
| 20260506220937 | 62 | 285 | 14.0 | 29.0 | 0.00 | 0.00 | 0.00 | 76 | 1019.6 |
| 20260506220445 | 62 | 301 | 17.0 | 29.0 | 0.00 | 0.00 | 0.00 | 75 | 1019.6 |
| 20260506215951 | 62 | 268 | 16.0 | 23.0 | 0.00 | 0.00 | 0.00 | 75 | 1019.6 |
| 20260506215419 | 63 | 280 | 12.0 | 23.0 | 0.00 | 0.00 | 0.00 | 75 | 1019.7 |
| 20260506214921 | 62 | 283 | 14.0 | 28.0 | 0.00 | 0.00 | 0.00 | 75 | 1019.8 |
| 20260506214427 | 62 | 273 | 13.0 | 28.0 | 0.00 | 0.00 | 0.00 | 75 | 1019.7 |
| 20260506213935 | 62 | 299 | 15.0 | 24.0 | 0.00 | 0.00 | 0.00 | 74 | 1019.8 |
| 20260506213436 | 63 | 258 | 15.0 | 24.0 | 0.00 | 0.00 | 0.00 | 74 | 1019.8 |
| 20260506212922 | 63 | 270 | 12.0 | 23.0 | 0.00 | 0.00 | 0.00 | 74 | 1019.8 |
| 20260506212428 | 63 | 297 | 11.0 | 23.0 | 0.00 | 0.00 | 0.00 | 74 | 1019.8 |
| 20260506211936 | 63 | 282 | 13.0 | 22.0 | 0.00 | 0.00 | 0.00 | 74 | 1019.8 |
| 20260506211439 | 63 | 221 | 14.0 | 22.0 | 0.00 | 0.00 | 0.00 | 74 | 1019.8 |
| 20260506210927 | 64 | 271 | 10.0 | 20.0 | 0.00 | 0.00 | 0.00 | 74 | 1019.9 |
| 20260506210433 | 64 | 264 | 12.0 | 19.0 | 0.00 | 0.00 | 0.00 | 74 | 1019.9 |
| 20260506205919 | 63 | 283 | 10.0 | 19.0 | 0.00 | 0.00 | 0.00 | 74 | 1019.9 |
| 20260506205428 | 63 | 292 | 11.0 | 18.0 | 0.00 | 0.00 | 0.00 | 74 | 1019.9 |
| 20260506204936 | 63 | 292 | 13.0 | 19.0 | 0.00 | 0.00 | 0.00 | 74 | 1020.1 |
| 20260506204422 | 63 | 275 | 13.0 | 19.0 | 0.00 | 0.00 | 0.00 | 74 | 1020.0 |
| 20260506203928 | 63 | 268 | 11.0 | 18.0 | 0.00 | 0.00 | 0.00 | 74 | 1020.0 |
| 20260506203432 | 63 | 237 | 12.0 | 19.0 | 0.00 | 0.00 | 0.00 | 74 | 1020.0 |
| 20260506202934 | 63 | 278 | 13.0 | 19.0 | 0.00 | 0.00 | 0.00 | 74 | 1020.1 |
| 20260506202421 | 63 | 287 | 11.0 | 19.0 | 0.00 | 0.00 | 0.00 | 74 | 1020.1 |
| 20260506201927 | 64 | 261 | 11.0 | 17.0 | 0.00 | 0.00 | 0.00 | 73 | 1020.2 |
| 20260506201433 | 64 | 268 | 9.0 | 17.0 | 0.00 | 0.00 | 0.00 | 73 | 1020.2 |
| 20260506200921 | 64 | 295 | 12.0 | 17.0 | 0.00 | 0.00 | 0.00 | 73 | 1020.2 |
| 20260506200447 | 64 | 280 | 10.0 | 16.0 | 0.00 | 0.00 | 0.00 | 72 | 1020.3 |
| 20260506195927 | 65 | 329 | 10.0 | 14.0 | 0.00 | 0.00 | 0.00 | 72 | 1020.3 |
| 20260506195433 | 65 | 273 | 10.0 | 16.0 | 0.00 | 0.00 | 0.00 | 72 | 1020.4 |
| 20260506194921 | 65 | 307 | 8.0 | 16.0 | 0.00 | 0.00 | 0.00 | 72 | 1020.4 |
| 20260506194426 | 64 | 273 | 9.0 | 15.0 | 0.00 | 0.00 | 0.00 | 72 | 1020.4 |
| 20260506193932 | 64 | 299 | 10.0 | 15.0 | 0.00 | 0.00 | 0.00 | 71 | 1020.5 |
| 20260506193440 | 65 | 280 | 7.0 | 15.0 | 0.00 | 0.00 | 0.00 | 72 | 1020.4 |
| 20260506192956 | 65 | 252 | 7.0 | 15.0 | 0.00 | 0.00 | 0.00 | 71 | 1020.4 |
| 20260506192436 | 65 | 297 | 7.0 | 13.0 | 0.00 | 0.00 | 0.00 | 72 | 1020.5 |
| 20260506191923 | 65 | 257 | 8.0 | 13.0 | 0.00 | 0.00 | 0.00 | 71 | 1020.6 |
| 20260506191429 | 64 | 254 | 5.0 | 12.0 | 0.00 | 0.00 | 0.00 | 72 | 1020.6 |
| 20260506190936 | 64 | 274 | 7.0 | 12.0 | 0.00 | 0.00 | 0.00 | 72 | 1020.6 |
| 20260506190443 | 64 | 275 | 8.0 | 12.0 | 0.00 | 0.00 | 0.00 | 71 | 1020.6 |
| 20260506185920 | 65 | 316 | 7.0 | 12.0 | 0.00 | 0.00 | 0.00 | 71 | 1020.6 |
| 20260506185426 | 65 | 134 | 5.0 | 10.0 | 0.00 | 0.00 | 0.00 | 72 | 1020.6 |
| 20260506184928 | 64 | 251 | 5.0 | 12.0 | 0.00 | 0.00 | 0.00 | 72 | 1020.6 |
| 20260506184436 | 64 | 302 | 7.0 | 12.0 | 0.00 | 0.00 | 0.00 | 73 | 1020.6 |
| 20260506183952 | 63 | 284 | 5.0 | 12.0 | 0.00 | 0.00 | 0.00 | 73 | 1020.7 |
| 20260506183438 | 64 | 280 | 6.0 | 12.0 | 0.00 | 0.00 | 0.00 | 73 | 1020.7 |
| 20260506182923 | 63 | 280 | 5.0 | 11.0 | 0.00 | 0.00 | 0.00 | 74 | 1020.6 |
| 20260506182448 | 63 | 246 | 4.0 | 9.0 | 0.00 | 0.00 | 0.00 | 74 | 1020.6 |
| 20260506181935 | 62 | 297 | 4.0 | 9.0 | 0.00 | 0.00 | 0.00 | 75 | 1020.6 |
| 20260506181437 | 62 | 212 | 4.0 | 9.0 | 0.00 | 0.00 | 0.00 | 75 | 1020.6 |
| 20260506180925 | 62 | 306 | 5.0 | 11.0 | 0.00 | 0.00 | 0.00 | 74 | 1020.7 |
| 20260506180434 | 62 | 270 | 6.0 | 11.0 | 0.00 | 0.00 | 0.00 | 74 | 1020.6 |
| 20260506175921 | 62 | 300 | 5.0 | 10.0 | 0.00 | 0.00 | 0.00 | 73 | 1020.6 |
| 20260506175426 | 63 | 301 | 5.0 | 10.0 | 0.00 | 0.00 | 0.00 | 73 | 1020.6 |
| 20260506174934 | 63 | 7 | 1.0 | 6.0 | 0.00 | 0.00 | 0.00 | 74 | 1020.6 |
| 20260506174420 | 62 | 256 | 3.0 | 7.0 | 0.00 | 0.00 | 0.00 | 73 | 1020.6 |
| 20260506173926 | 62 | 341 | 2.0 | 7.0 | 0.00 | 0.00 | 0.00 | 74 | 1020.6 |
| 20260506173430 | 62 | 345 | 5.0 | 8.0 | 0.00 | 0.00 | 0.00 | 74 | 1020.6 |
| 20260506172936 | 62 | 194 | 3.0 | 9.0 | 0.00 | 0.00 | 0.00 | 74 | 1020.6 |
| 20260506172422 | 62 | 282 | 4.0 | 9.0 | 0.00 | 0.00 | 0.00 | 74 | 1020.7 |
| 20260506171928 | 61 | 262 | 3.0 | 7.0 | 0.00 | 0.00 | 0.00 | 75 | 1020.7 |
| 20260506171431 | 61 | 275 | 3.0 | 8.0 | 0.00 | 0.00 | 0.00 | 74 | 1020.7 |
| 20260506170919 | 62 | 316 | 5.0 | 8.0 | 0.00 | 0.00 | 0.00 | 74 | 1020.8 |
| 20260506170425 | 62 | 192 | 2.0 | 7.0 | 0.00 | 0.00 | 0.00 | 74 | 1020.7 |
| 20260506165946 | 61 | 40 | 4.0 | 7.0 | 0.00 | 0.00 | 0.00 | 74 | 1020.8 |
| 20260506165501 | 61 | 62 | 5.0 | 7.0 | 0.00 | 0.00 | 0.00 | 75 | 1020.7 |
| 20260506164955 | 61 | 88 | 2.0 | 8.0 | 0.00 | 0.00 | 0.00 | 75 | 1020.7 |
| 20260506164440 | 61 | 69 | 4.0 | 8.0 | 0.00 | 0.00 | 0.00 | 74 | 1020.7 |
| 20260506163955 | 61 | 320 | 4.0 | 10.0 | 0.00 | 0.00 | 0.00 | 74 | 1020.7 |
| 20260506163420 | 62 | 351 | 5.0 | 10.0 | 0.00 | 0.00 | 0.00 | 73 | 1020.6 |
| 20260506162940 | 62 | 219 | 1.0 | 6.0 | 0.00 | 0.00 | 0.00 | 74 | 1020.7 |
| 20260506162445 | 62 | 306 | 4.0 | 6.0 | 0.00 | 0.00 | 0.00 | 74 | 1020.7 |
| 20260506161930 | 61 | 167 | 2.0 | 8.0 | 0.00 | 0.00 | 0.00 | 75 | 1020.6 |
| 20260506161435 | 61 | 196 | 2.0 | 8.0 | 0.00 | 0.00 | 0.00 | 75 | 1020.8 |
| 20260506160921 | 60 | 275 | 3.0 | 5.0 | 0.00 | 0.00 | 0.00 | 75 | 1020.7 |
| 20260506160426 | 60 | 309 | 3.0 | 5.0 | 0.00 | 0.00 | 0.00 | 76 | 1020.7 |
| 20260506155926 | 60 | 279 | 3.0 | 7.0 | 0.00 | 0.00 | 0.00 | 76 | 1020.7 |
| 20260506155432 | 60 | 325 | 3.0 | 7.0 | 0.00 | 0.00 | 0.00 | 76 | 1020.7 |
| 20260506154938 | 59 | 289 | 3.0 | 5.0 | 0.00 | 0.00 | 0.00 | 76 | 1020.7 |
| 20260506154423 | 59 | 301 | 2.0 | 6.0 | 0.00 | 0.00 | 0.00 | 76 | 1020.8 |
| 20260506153951 | 60 | 314 | 3.0 | 6.0 | 0.00 | 0.00 | 0.00 | 77 | 1020.7 |
| 20260506153436 | 60 | 286 | 3.0 | 5.0 | 0.00 | 0.00 | 0.00 | 77 | 1020.7 |
| 20260506152941 | 59 | 261 | 3.0 | 5.0 | 0.00 | 0.00 | 0.00 | 77 | 1020.6 |
| 20260506152422 | 59 | 295 | 2.0 | 6.0 | 0.00 | 0.00 | 0.00 | 77 | 1020.7 |
| 20260506151930 | 59 | 323 | 3.0 | 7.0 | 0.00 | 0.00 | 0.00 | 77 | 1020.7 |
| 20260506151437 | 59 | 328 | 4.0 | 7.0 | 0.00 | 0.00 | 0.00 | 78 | 1020.6 |
| 20260506150925 | 59 | 313 | 2.0 | 4.0 | 0.00 | 0.00 | 0.00 | 79 | 1020.6 |
| 20260506150458 | 58 | 177 | 2.0 | 5.0 | 0.00 | 0.00 | 0.00 | 79 | 1020.6 |
| 20260506145942 | 58 | 222 | 1.0 | 7.0 | 0.00 | 0.00 | 0.00 | 79 | 1020.6 |
| 20260506145424 | 58 | 271 | 4.0 | 8.0 | 0.00 | 0.00 | 0.00 | 79 | 1020.6 |
| 20260506144930 | 58 | 302 | 4.0 | 8.0 | 0.00 | 0.00 | 0.00 | 80 | 1020.5 |
| 20260506144435 | 57 | 313 | 2.0 | 7.0 | 0.00 | 0.00 | 0.00 | 80 | 1020.4 |
| 20260506143919 | 57 | 276 | 4.0 | 7.0 | 0.00 | 0.00 | 0.00 | 80 | 1020.5 |
| 20260506143425 | 57 | 261 | 4.0 | 7.0 | 0.00 | 0.00 | 0.00 | 80 | 1020.4 |
| 20260506142932 | 57 | 313 | 3.0 | 8.0 | 0.00 | 0.00 | 0.00 | 80 | 1020.3 |
| 20260506142419 | 57 | 295 | 4.0 | 8.0 | 0.00 | 0.00 | 0.00 | 80 | 1020.3 |
| 20260506141934 | 57 | 34 | 2.0 | 5.0 | 0.00 | 0.00 | 0.00 | 80 | 1020.3 |
| 20260506141420 | 57 | 309 | 3.0 | 4.0 | 0.00 | 0.00 | 0.00 | 80 | 1020.2 |
| 20260506140945 | 57 | 282 | 2.0 | 4.0 | 0.00 | 0.00 | 0.00 | 80 | 1020.2 |
| 20260506140429 | 57 | 235 | 3.0 | 6.0 | 0.00 | 0.00 | 0.00 | 80 | 1020.2 |
| 20260506135935 | 56 | 259 | 3.0 | 6.0 | 0.00 | 0.00 | 0.00 | 80 | 1020.1 |
| 20260506135422 | 56 | 289 | 3.0 | 5.0 | 0.00 | 0.00 | 0.00 | 81 | 1020.0 |
| 20260506134946 | 56 | 222 | 2.0 | 4.0 | 0.00 | 0.00 | 0.00 | 81 | 1020.0 |
| 20260506134433 | 56 | 185 | 1.0 | 4.0 | 0.00 | 0.00 | 0.00 | 81 | 1020.0 |
| 20260506133919 | 56 | 313 | 2.0 | 6.0 | 0.00 | 0.00 | 0.00 | 81 | 1019.9 |
| 20260506133426 | 56 | 295 | 3.0 | 6.0 | 0.00 | 0.00 | 0.00 | 81 | 1020.0 |
| 20260506132934 | 56 | 285 | 4.0 | 7.0 | 0.00 | 0.00 | 0.00 | 81 | 1019.9 |
| 20260506132420 | 56 | 247 | 3.0 | 7.0 | 0.00 | 0.00 | 0.00 | 81 | 1019.9 |
| 20260506131927 | 56 | 289 | 3.0 | 6.0 | 0.00 | 0.00 | 0.00 | 81 | 1019.9 |
| 20260506131435 | 56 | 290 | 3.0 | 6.0 | 0.00 | 0.00 | 0.00 | 81 | 1019.8 |
| 20260506130920 | 56 | 299 | 3.0 | 7.0 | 0.00 | 0.00 | 0.00 | 81 | 1019.7 |
| 20260506130422 | 56 | 258 | 2.0 | 7.0 | 0.00 | 0.00 | 0.00 | 82 | 1019.7 |
| 20260506125948 | 56 | 249 | 2.0 | 7.0 | 0.00 | 0.00 | 0.00 | 82 | 1019.8 |
| 20260506125434 | 56 | 268 | 4.0 | 7.0 | 0.00 | 0.00 | 0.00 | 82 | 1019.7 |
| 20260506124924 | 56 | 251 | 3.0 | 6.0 | 0.00 | 0.00 | 0.00 | 82 | 1019.7 |
| 20260506124430 | 56 | 292 | 2.0 | 5.0 | 0.00 | 0.00 | 0.00 | 81 | 1019.6 |
| 20260506123918 | 56 | 282 | 3.0 | 6.0 | 0.00 | 0.00 | 0.00 | 81 | 1019.5 |
| 20260506123421 | 56 | 256 | 2.0 | 8.0 | 0.00 | 0.00 | 0.00 | 81 | 1019.5 |
| 20260506122948 | 56 | 276 | 3.0 | 5.0 | 0.00 | 0.00 | 0.00 | 81 | 1019.5 |
| 20260506122436 | 56 | 301 | 2.0 | 4.0 | 0.00 | 0.00 | 0.00 | 81 | 1019.5 |
| 20260506121923 | 56 | 334 | 2.0 | 7.0 | 0.00 | 0.00 | 0.00 | 81 | 1019.4 |
| 20260506121459 | 56 | 160 | 2.0 | 7.0 | 0.00 | 0.00 | 0.00 | 81 | 1019.5 |
| 20260506120925 | 56 | 302 | 2.0 | 8.0 | 0.00 | 0.00 | 0.00 | 80 | 1019.5 |
| 20260506120433 | 56 | 288 | 5.0 | 8.0 | 0.00 | 0.00 | 0.00 | 80 | 1019.5 |
| 20260506115936 | 56 | 297 | 3.0 | 5.0 | 0.00 | 0.00 | 0.00 | 80 | 1019.4 |
| 20260506115422 | 56 | 330 | 2.0 | 4.0 | 0.00 | 0.00 | 0.00 | 80 | 1019.4 |
| 20260506114957 | 56 | 320 | 2.0 | 7.0 | 0.00 | 0.00 | 0.00 | 80 | 1019.4 |
| 20260506114445 | 56 | 261 | 2.0 | 7.0 | 0.00 | 0.00 | 0.00 | 80 | 1019.5 |
| 20260506113926 | 56 | 302 | 3.0 | 7.0 | 0.00 | 0.00 | 0.00 | 80 | 1019.4 |
| 20260506113435 | 56 | 190 | 3.0 | 7.0 | 0.00 | 0.00 | 0.00 | 80 | 1019.3 |
| 20260506112922 | 56 | 230 | 3.0 | 7.0 | 0.00 | 0.00 | 0.00 | 80 | 1019.3 |
| 20260506112425 | 56 | 313 | 4.0 | 7.0 | 0.00 | 0.00 | 0.00 | 81 | 1019.2 |
| 20260506111932 | 56 | 251 | 4.0 | 7.0 | 0.00 | 0.00 | 0.00 | 81 | 1019.3 |
| 20260506111419 | 56 | 293 | 5.0 | 8.0 | 0.00 | 0.00 | 0.00 | 81 | 1019.2 |
| 20260506110925 | 56 | 280 | 5.0 | 9.0 | 0.00 | 0.00 | 0.00 | 81 | 1019.2 |
| 20260506110429 | 56 | 275 | 5.0 | 9.0 | 0.00 | 0.00 | 0.00 | 82 | 1019.1 |
| 20260506105936 | 56 | 277 | 6.0 | 9.0 | 0.00 | 0.00 | 0.00 | 83 | 1019.1 |
| 20260506105424 | 56 | 303 | 5.0 | 9.0 | 0.00 | 0.00 | 0.00 | 83 | 1019.1 |
| 20260506104932 | 56 | 273 | 5.0 | 9.0 | 0.00 | 0.00 | 0.00 | 83 | 1019.1 |
| 20260506104436 | 56 | 294 | 5.0 | 9.0 | 0.00 | 0.00 | 0.00 | 83 | 1019.1 |
| 20260506103951 | 56 | 277 | 4.0 | 10.0 | 0.00 | 0.00 | 0.00 | 83 | 1019.0 |
| 20260506103441 | 56 | 261 | 5.0 | 10.0 | 0.00 | 0.00 | 0.00 | 83 | 1019.0 |
| 20260506102945 | 56 | 295 | 3.0 | 11.0 | 0.00 | 0.00 | 0.00 | 83 | 1019.0 |
| 20260506102433 | 56 | 276 | 6.0 | 11.0 | 0.00 | 0.00 | 0.00 | 83 | 1019.0 |
| 20260506101921 | 56 | 308 | 5.0 | 9.0 | 0.00 | 0.00 | 0.00 | 83 | 1019.0 |
| 20260506101445 | 56 | 270 | 6.0 | 9.0 | 0.00 | 0.00 | 0.00 | 83 | 1018.8 |
| 20260506100932 | 56 | 288 | 2.0 | 9.0 | 0.00 | 0.00 | 0.00 | 83 | 1018.9 |
| 20260506100419 | 56 | 287 | 4.0 | 8.0 | 0.00 | 0.00 | 0.00 | 83 | 1018.9 |
| 20260506095924 | 56 | 314 | 4.0 | 9.0 | 0.00 | 0.01 | 0.00 | 82 | 1018.9 |
| 20260506095435 | 56 | 299 | 5.0 | 9.0 | 0.00 | 0.01 | 0.00 | 82 | 1018.9 |
| 20260506094922 | 56 | 297 | 4.0 | 8.0 | 0.00 | 0.01 | 0.00 | 82 | 1019.0 |
| 20260506094430 | 56 | 280 | 5.0 | 8.0 | 0.00 | 0.01 | 0.00 | 82 | 1019.0 |
| 20260506093928 | 56 | 287 | 6.0 | 8.0 | 0.00 | 0.01 | 0.00 | 82 | 1019.0 |
| 20260506093437 | 56 | 280 | 2.0 | 7.0 | 0.00 | 0.01 | 0.00 | 81 | 1019.0 |
| 20260506092941 | 56 | 280 | 4.0 | 7.0 | 0.00 | 0.01 | 0.00 | 81 | 1019.0 |
| 20260506092428 | 56 | 317 | 2.0 | 10.0 | 0.00 | 0.01 | 0.00 | 81 | 1018.9 |
| 20260506091935 | 56 | 282 | 3.0 | 10.0 | 0.00 | 0.01 | 0.00 | 81 | 1018.9 |
| 20260506091422 | 56 | 315 | 3.0 | 9.0 | 0.00 | 0.01 | 0.00 | 81 | 1018.8 |
| 20260506090929 | 56 | 273 | 4.0 | 8.0 | 0.00 | 0.01 | 0.00 | 81 | 1018.7 |
| 20260506090501 | 56 | 203 | 4.0 | 8.0 | 0.00 | 0.01 | 0.00 | 81 | 1018.7 |
| 20260506085956 | 56 | 256 | 4.0 | 7.0 | 0.00 | 0.03 | 0.00 | 81 | 1018.8 |
| 20260506085451 | 56 | 285 | 6.0 | 7.0 | 0.00 | 0.03 | 0.00 | 81 | 1018.9 |
| 20260506084939 | 56 | 282 | 2.0 | 8.0 | 0.00 | 0.03 | 0.00 | 81 | 1018.8 |
| 20260506084455 | 56 | 301 | 3.0 | 8.0 | 0.00 | 0.03 | 0.00 | 81 | 1018.9 |
| 20260506083923 | 56 | 300 | 4.0 | 8.0 | 0.00 | 0.03 | 0.00 | 81 | 1018.9 |
| 20260506083443 | 56 | 318 | 4.0 | 6.0 | 0.00 | 0.03 | 0.00 | 81 | 1018.9 |
| 20260506082928 | 56 | 299 | 2.0 | 10.0 | 0.00 | 0.03 | 0.00 | 81 | 1019.0 |
| 20260506082434 | 56 | 313 | 4.0 | 10.0 | 0.00 | 0.03 | 0.00 | 80 | 1019.0 |
| 20260506081920 | 57 | 273 | 4.0 | 9.0 | 0.00 | 0.03 | 0.00 | 80 | 1019.1 |
| 20260506081427 | 56 | 286 | 3.0 | 8.0 | 0.00 | 0.03 | 0.00 | 80 | 1019.0 |
| 20260506080934 | 56 | 294 | 5.0 | 10.0 | 0.00 | 0.03 | 0.00 | 80 | 1019.0 |
| 20260506080440 | 56 | 277 | 5.0 | 10.0 | 0.00 | 0.03 | 0.00 | 80 | 1019.1 |
| 20260506073419 | 56 | 290 | 7.0 | 11.0 | 0.00 | 0.06 | 0.00 | 81 | 1018.8 |
| 20260506072944 | 56 | 261 | 4.0 | 11.0 | 0.00 | 0.06 | 0.00 | 81 | 1018.9 |
| 20260506072427 | 56 | 278 | 7.0 | 12.0 | 0.00 | 0.06 | 0.00 | 81 | 1018.7 |
| 20260506071933 | 56 | 280 | 6.0 | 12.0 | 0.00 | 0.06 | 0.00 | 82 | 1018.8 |
| 20260506071418 | 56 | 260 | 5.0 | 11.0 | 0.00 | 0.06 | 0.00 | 82 | 1018.6 |
| 20260506070946 | 56 | 239 | 6.0 | 12.0 | 0.00 | 0.06 | 0.00 | 82 | 1018.7 |
| 20260506070433 | 56 | 283 | 4.0 | 12.0 | 0.00 | 0.06 | 0.00 | 83 | 1018.7 |
| 20260506062430 | 57 | 306 | 6.0 | 9.0 | 0.00 | 0.07 | 0.06 | 83 | 1018.3 |
| 20260506061933 | 57 | 314 | 4.0 | 11.0 | 0.00 | 0.07 | 0.06 | 82 | 1018.3 |
| 20260506061420 | 57 | 283 | 6.0 | 11.0 | 0.00 | 0.07 | 0.06 | 82 | 1018.2 |
| 20260506060928 | 57 | 302 | 6.0 | 12.0 | 0.00 | 0.07 | 0.06 | 82 | 1018.2 |